Location: New Frontier Mobile Home Park
(32.8448°N, 116.9675°W)
Time: 23:04:31
(UTC+00:00)

NOSS 3-2 (A) - Pass Details

Date: 14 July 2020
Orbit: 798 x 1410 km, 63.4° (Epoch: 31 July)

Event Time Altitude Azimuth Distance (km) Brightness Sun altitude
Exits shadow 11:18:27 28° 233° (SW) 1,531 3.9 -16.9°
Maximum altitude 11:21:22 60° 303° (WNW) 985 3.4 -16.4°
Drops below altitude 10° 11:27:25 10° 23° (NNE) 2,677 6.8 -15.5°
Sets 11:30:12 0° 27° (NNE) 3,717 7.8 -15.0°
